[[{"header":{"parameterUnit":"m.s-1","parameterCategory":1,"la1":30.2991,"la2":30.254,"lo1":-89.0895,"lo2":-89.0444,"dy":0.0017,"dx":0.0017,"nx":28,"ny":28,"refTime":"2025-11-12T09:00:00:Z","depth":0,"parameterNumber":2,"parameterNumberName":"U-component_of_WINDS"},"data":[0,0,0,0,0,0,0,0,0,0,0,0,0,0,0,0,0,0,0,0,0,0,0,0,0,0,0,0,0,0,0,0,0,0,0,0,0,0,0,0,0,0,0,0,0,0,0,0,0,0,0,0,0,0,0,0,0,0,0.7512,0.7513,0,0.7681,0.7683,0.7685,0.7723,0.7722,0.7721,0.7719,0.7895,0.7901,0.7907,0,0,0,0,0,0,0,0,0,0,0,0,0,0.7222,0.7227,0.7511,0.7514,0.7516,0.7681,0.7683,0.7686,0.7723,0.7722,0.772,0.7719,0.7893,0.79,0.7907,0,0,0,0,0,0,0,0,0,0,0,0,0,0.7365,0.7228,0.7511,0.7554,0.756,0.7681,0.7683,0.7686,0.7723,0.7722,0.772,0.7718,0.7891,0.79,0.7908,0.7998,0,0,0.7935,0.7939,0,0,0,0,0,0,0,0,0.7357,0.7376,0.7546,0.7552,0.7558,0.7679,0.7646,0.7791,0.7724,0.7661,0.7719,0.7717,0.7825,0.7839,0.7875,0.8007,0.8014,0.7936,0.7941,0.7945,0.7947,0,0,0,0,0,0,0,0.7347,0.7369,0.7579,0.7548,0.7556,0.7566,0.7584,0.7673,0.7751,0.7667,0.767,0.7689,0.7828,0.7866,0.7879,0.8017,0.7935,0.7943,0.7948,0.7952,0.8231,0.8233,0,0,0,0,0,0,0.7329,0.736,0.7573,0.7584,0.7451,0.7572,0.7593,0.7642,0.775,0.7765,0.7691,0.769,0.7852,0.7869,0.7886,0.7998,0.7944,0.7953,0.7958,0.8229,0.8231,0.8234,0,0,0,0,0,0,0.7323,0.7348,0.7567,0.7473,0.7501,0.7579,0.7634,0.7646,0.7685,0.7769,0.7783,0.7716,0.7852,0.7873,0.797,0.8005,0.7957,0.7965,0.8226,0.8229,0.8232,0.8223,0,0,0,0,0,0,0.7314,0.7345,0.738,0.7473,0.7506,0.7647,0.7636,0.7651,0.77,0.7701,0.7796,0.781,0.7852,0.7957,0.7978,0.8016,0.7971,0.8223,0.8228,0.8231,0.8221,0.8226,0.823,0,0,0,0,0,0.7304,0.7371,0.7381,0.7407,0.7551,0.7649,0.7668,0.7715,0.7702,0.7738,0.7792,0.7807,0.7997,0.7966,0.7991,0.8031,0.8221,0.8226,0.8231,0.8219,0.8225,0.823,0,0,0,0,0,0,0.728,0.7384,0.7397,0.7496,0.7563,0.7655,0.7702,0.772,0.7792,0.7791,0.7846,0.7867,0.796,0.8006,0.7969,0.8124,0.8109,0.8119,0.8091,0.8098,0.8102,0.8089,0.7979,0,0,0,0,0,0.7287,0.7357,0.7444,0.7524,0.7557,0.7623,0.7668,0.7698,0.777,0.7799,0.786,0.793,0.8005,0.8054,0.8129,0.8228,0.8249,0.8268,0.8273,0.8276,0.8284,0.834,0.8349,0.825,0.825,0.825,0,0,0.7301,0.7366,0.7407,0.7521,0.7576,0.7648,0.7647,0.7723,0.7778,0.7811,0.7905,0.7952,0.8034,0.8132,0.8179,0.8173,0.8316,0.8282,0.8284,0.8291,0.8346,0.8355,0.8363,0.8253,0.8252,0.8252,0,0,0.7363,0.7419,0.7491,0.7547,0.7631,0.7675,0.7692,0.7782,0.7814,0.7909,0.7936,0.8001,0.8131,0.8188,0.8234,0.8317,0.8333,0.834,0.8364,0.8418,0.8425,0.8433,0.8462,0.8472,0.8348,0.8348,0.8348,0,0.737,0.7479,0.7526,0.7602,0.7651,0.7683,0.7757,0.7809,0.7913,0.7946,0.7939,0.8101,0.8159,0.827,0.8291,0.8327,0.8348,0.8329,0.842,0.8428,0.8435,0.8464,0.8475,0.8348,0.8348,0.8348,0.8348,0,0.7483,0.7558,0.7606,0.7705,0.776,0.7834,0.7893,0.7943,0.7968,0.8013,0.811,0.818,0.8268,0.8297,0.8323,0.8413,0.8407,0.8409,0.8395,0.8444,0.8472,0.8483,0.8348,0.8348,0.8348,0.8348,0,0,0.7534,0.7659,0.7676,0.7721,0.7816,0.7875,0.7951,0.8037,0.8078,0.8149,0.8214,0.8322,0.8325,0.8377,0.841,0.8457,0.8518,0.8453,0.8456,0.8462,0.862,0.8617,0.8629,0.8529,0.8532,0.8533,0.8613,0,0.7608,0.7743,0.7788,0.79,0.797,0.8003,0.8068,0.8134,0.8178,0.8244,0.8293,0.8369,0.8367,0.8398,0.8446,0.85,0.855,0.8495,0.859,0.8593,0.8568,0.8644,0.8642,0.8713,0.8624,0.8626,0.8628,0,0.7711,0.7782,0.7901,0.7987,0.8019,0.8077,0.8159,0.8222,0.8297,0.8326,0.8384,0.8413,0.8493,0.8474,0.8586,0.8548,0.8589,0.8622,0.8626,0.8636,0.8613,0.8656,0.8738,0.8748,0.8645,0.8644,0.8643,0,0.7736,0.7862,0.795,0.7987,0.809,0.813,0.8175,0.8248,0.8297,0.837,0.8402,0.8483,0.8527,0.8589,0.864,0.8621,0.8747,0.8732,0.8773,0.8772,0.8798,0.8795,0.8886,0.8825,0.8825,0.8825,0.8825,0,0.7812,0.7884,0.7962,0.8016,0.8097,0.8148,0.8227,0.8274,0.8339,0.8403,0.8436,0.8495,0.8558,0.8626,0.8666,0.8752,0.8772,0.8797,0.8807,0.8794,0.8791,0.8822,0.8818,0.8828,0.8827,0.8827,0.8826,0,0.7854,0.7909,0.8006,0.8095,0.812,0.8175,0.8252,0.8305,0.8351,0.8431,0.8452,0.8524,0.8605,0.8661,0.8766,0.8793,0.8885,0.8895,0.886,0.8864,0.8902,0.8897,0.9016,0.9034,0.8961,0.8961,0.8962,0,0.7898,0.7954,0.8049,0.8094,0.8138,0.821,0.826,0.8313,0.8364,0.8453,0.8496,0.8579,0.8648,0.8777,0.8838,0.8918,0.8929,0.8965,0.8942,0.8927,0.8929,0.8925,0.8931,0.8969,0.8969,0.897,0.897,0,0.7972,0.7996,0.8067,0.8147,0.8205,0.8271,0.8336,0.8371,0.8436,0.8491,0.8574,0.8628,0.8734,0.8816,0.8902,0.8949,0.8971,0.8977,0.8991,0.8978,0.8955,0.8967,0.8869,0.8974,0.8974,0.8973,0.8973,0.8973,0.8016,0.8067,0.8141,0.8218,0.8274,0.8334,0.8389,0.8441,0.8511,0.8601,0.8628,0.8714,0.8788,0.8906,0.8954,0.9022,0.9019,0.9039,0.9044,0.9048,0.9047,0.8944,0.9038,0.9038,0.9038,0.9038,0.9038,0,0.8091,0.814,0.8211,0.8301,0.8362,0.8377,0.845,0.85,0.8575,0.8642,0.871,0.8805,0.8885,0.8952,0.9035,0.9077,0.9088,0.9096,0.9094,0.9104,0.9045,0.9025,0.9085,0.9085,0.9085,0.9085,0.9085,0.9085,0.8137,0.8223,0.8256,0.837,0.842,0.8504,0.8545,0.8601,0.8655,0.8759,0.8825,0.8869,0.8936,0.9024,0.9098,0.9116,0.9144,0.915,0.917,0.9114,0.9108,0.9103,0.9084,0.9156,0.9156,0.9223,0.9224,0.9224]},{"header":{"parameterUnit":"m.s-1","parameterCategory":1,"la1":30.2991,"la2":30.254,"lo1":-89.0895,"lo2":-89.0444,"dy":0.0017,"dx":0.0017,"nx":28,"ny":28,"refTime":"2025-11-12T09:00:00:Z","depth":0,"parameterNumber":3,"parameterNumberName":"V-component_of_WINDS"},"data":[0,0,0,0,0,0,0,0,0,0,0,0,0,0,0,0,0,0,0,0,0,0,0,0,0,0,0,0,0,0,0,0,0,0,0,0,0,0,0,0,0,0,0,0,0,0,0,0,0,0,0,0,0,0,0,0,0,0,2.9734,2.9734,0,2.9661,2.9661,2.966,2.954,2.9538,2.9536,2.9534,2.9461,2.9461,2.9461,0,0,0,0,0,0,0,0,0,0,0,0,0,2.9772,2.9772,2.9735,2.9734,2.9733,2.9662,2.9661,2.966,2.954,2.9538,2.9535,2.9533,2.9461,2.9461,2.9461,0,0,0,0,0,0,0,0,0,0,0,0,0,2.9733,2.9772,2.9735,2.9665,2.9658,2.9662,2.9661,2.9659,2.9541,2.9538,2.9534,2.9531,2.9461,2.9461,2.9461,2.9529,0,0,2.9462,2.9462,0,0,0,0,0,0,0,0,2.9736,2.9732,2.9676,2.9669,2.9662,2.9606,2.9647,2.9616,2.9542,2.9585,2.9533,2.953,2.9512,2.9508,2.9502,2.9526,2.9522,2.9462,2.9462,2.9462,2.9462,0,0,0,0,0,0,0,2.9738,2.9734,2.9706,2.9675,2.9667,2.9637,2.9628,2.9641,2.9568,2.9581,2.9572,2.9565,2.9508,2.9502,2.9499,2.9521,2.9462,2.9462,2.9462,2.9462,2.9594,2.9598,0,0,0,0,0,0,2.9751,2.9737,2.9708,2.9703,2.9691,2.9639,2.9629,2.9628,2.9568,2.9556,2.9568,2.956,2.9503,2.9499,2.9496,2.9569,2.9462,2.9462,2.9463,2.9591,2.9595,2.9599,0,0,0,0,0,0,2.9752,2.975,2.9711,2.9718,2.9711,2.9642,2.9641,2.9628,2.9622,2.9558,2.9545,2.9575,2.95,2.9496,2.9521,2.9565,2.9463,2.9463,2.9587,2.9592,2.9597,2.9718,0,0,0,0,0,0,2.9754,2.9751,2.9776,2.9719,2.9711,2.9737,2.9644,2.9629,2.9622,2.9611,2.9561,2.955,2.9497,2.9521,2.9521,2.9564,2.9463,2.9583,2.9589,2.9595,2.971,2.9727,2.9741,0,0,0,0,0,2.9756,2.9814,2.9778,2.9775,2.974,2.974,2.9735,2.9673,2.9626,2.965,2.9609,2.9551,2.9561,2.9525,2.9524,2.9567,2.958,2.9588,2.9595,2.9703,2.9723,2.9741,0,0,0,0,0,0,2.9878,2.9805,2.9764,2.9805,2.978,2.972,2.9748,2.9697,2.9685,2.9675,2.9599,2.9589,2.9623,2.9598,2.9559,2.9628,2.9561,2.9569,2.9643,2.9662,2.9678,2.9683,2.9463,0,0,0,0,0,2.991,2.9915,2.9851,2.9894,2.9882,2.9818,2.9816,2.977,2.974,2.9729,2.969,2.9664,2.966,2.966,2.9654,2.9706,2.9692,2.9735,2.975,2.9763,2.9771,2.9794,2.9812,2.9624,2.9624,2.9624,0,0,2.9975,2.9936,2.9944,2.9917,2.9892,2.9899,2.981,2.9822,2.9826,2.9731,2.9751,2.9722,2.9688,2.9726,2.9741,2.9706,2.982,2.9773,2.9784,2.9784,2.9804,2.9822,2.9838,2.9629,2.9628,2.9627,0,0,3.0098,3.0069,3.0101,3.0077,3.0039,2.9995,3.0003,2.995,2.9927,2.9946,2.9874,2.9879,2.9876,2.9853,2.9842,2.9955,2.9901,2.9955,3.0037,3.0061,3.0075,3.0088,3.0127,3.0142,2.9963,2.9964,2.9964,0,3.0184,3.0192,3.0124,3.0139,3.0129,3.0042,3.0073,3.0053,3.0016,3.0011,2.9972,2.9964,2.9936,2.9967,2.9994,2.9988,2.9994,2.996,3.0079,3.0091,3.0102,3.0138,3.0153,2.997,2.9969,2.9969,2.9968,0,3.0299,3.0305,3.0335,3.03,3.0293,3.0317,3.0252,3.0253,3.0208,3.0169,3.0189,3.0151,3.0135,3.0139,3.0096,3.0163,3.0142,3.0093,3.0023,3.0127,3.016,3.0173,2.998,2.9977,2.9975,2.9974,0,0,3.0497,3.0422,3.0434,3.0416,3.0368,3.0371,3.0391,3.0374,3.0376,3.0353,3.0366,3.0365,3.0317,3.0305,3.0258,3.0279,3.0369,3.0226,3.0224,3.0252,3.0439,3.0476,3.0493,3.0333,3.0335,3.0337,3.0441,0,3.0609,3.0636,3.0575,3.0618,3.0622,3.0539,3.0556,3.0528,3.0491,3.049,3.045,3.0449,3.0387,3.0379,3.0396,3.0355,3.0405,3.0346,3.0344,3.0345,3.0354,3.0511,3.055,3.065,3.0454,3.0456,3.0458,0,3.0743,3.0725,3.0768,3.0715,3.0714,3.073,3.0709,3.0708,3.0675,3.0647,3.0632,3.0576,3.0591,3.0525,3.0544,3.0505,3.0501,3.048,3.0482,3.0479,3.0407,3.051,3.0681,3.0696,3.0477,3.0476,3.0474,0,3.0881,3.0868,3.0891,3.0879,3.0818,3.0831,3.0807,3.0769,3.0763,3.0744,3.0739,3.0723,3.0714,3.0703,3.0644,3.0602,3.067,3.0599,3.0646,3.0648,3.0663,3.0663,3.0835,3.0663,3.0663,3.0663,3.0662,0,3.1011,3.104,3.0952,3.0966,3.0996,3.0926,3.0957,3.0924,3.0892,3.0898,3.0827,3.0834,3.0757,3.0756,3.0711,3.0732,3.0729,3.0707,3.0694,3.0712,3.0715,3.0707,3.0698,3.0666,3.0666,3.0665,3.0664,0,3.117,3.1112,3.1132,3.1073,3.1058,3.1083,3.1032,3.1043,3.1001,3.101,3.1008,3.0944,3.0939,3.0879,3.0862,3.0831,3.087,3.0845,3.0881,3.0872,3.0922,3.0917,3.1093,3.1112,3.0931,3.0933,3.0934,0,3.1256,3.1276,3.1219,3.1218,3.1196,3.1195,3.1187,3.1119,3.1113,3.1076,3.1091,3.108,3.1067,3.1062,3.1014,3.1,3.0973,3.1036,3.097,3.0987,3.0972,3.0971,3.0972,3.1049,3.1052,3.1054,3.1055,0,3.1415,3.1385,3.1376,3.1357,3.135,3.1332,3.1309,3.1312,3.1236,3.1234,3.1227,3.1218,3.1199,3.1188,3.1165,3.1139,3.1085,3.1076,3.1086,3.1104,3.1123,3.1112,3.0917,3.1072,3.107,3.1069,3.1068,3.1068,3.1539,3.1553,3.1514,3.1506,3.1481,3.1462,3.1468,3.1427,3.142,3.1399,3.1359,3.1358,3.1322,3.1285,3.1264,3.1262,3.123,3.1244,3.1248,3.1252,3.1261,3.1125,3.1258,3.1257,3.1257,3.1256,3.1256,0,3.1693,3.1663,3.1657,3.1627,3.1621,3.1569,3.1541,3.1539,3.1539,3.151,3.1498,3.149,3.1479,3.143,3.1413,3.1421,3.1395,3.1419,3.1417,3.1411,3.1292,3.1284,3.144,3.144,3.144,3.144,3.144,3.1439,3.1772,3.1791,3.1757,3.1763,3.1733,3.1731,3.1719,3.17,3.1677,3.167,3.166,3.1628,3.159,3.157,3.1557,3.1543,3.154,3.1571,3.1549,3.1438,3.142,3.1403,3.1396,3.1572,3.1572,3.1668,3.1669,3.1669]}]]